Theta_e
346 346 347 347 346 345 345 346 347 348 349 353 346 352 351 347 349 350 352 352 349 352 354 349 356 348 356 356 355 353 352 353 350 348 345 353 349 345 339 336 336 336 336
346 346 347 349 348 349 348 348 349 348 349 351 350 349 349 352 349 354 352 351 352 353 355 351 356 349 356 354 353 353 349 350 354 344 342 342 350 344 345 341 336 335 336
347 347 347 348 350 352 352 351 350 350 341 349 349 350 350 351 350 349 348 353 353 352 355 358 357 351 359 354 355 353 352 351 348 344 341 339 338 331 336 343 340 339 336
347 347 346 348 349 352 353 354 352 353 339 350 351 349 344 345 346 347 355 353 350 350 354 357 357 350 359 354 351 350 351 355 348 339 335 339 336 338 336 332 339 340 336
346 347 347 348 349 350 352 355 356 354 355 340 349 351 347 348 347 347 349 347 355 349 355 356 356 358 352 354 352 351 349 344 337 339 335 334 333 335 327 326 326 330 338
347 347 347 348 349 349 351 354 356 355 353 354 343 348 350 343 347 344 350 350 354 356 354 357 348 359 356 356 351 353 354 347 344 322 334 329 326 324 322 322 324 323 328
348 346 347 349 349 349 349 352 355 355 352 352 346 341 340 343 345 350 347 352 351 352 357 354 349 357 355 358 353 353 355 350 347 326 314 325 323 323 323 323 324 324 324
350 347 347 348 350 348 348 350 354 354 352 351 349 344 338 331 328 340 345 349 351 353 354 353 351 356 358 358 354 354 351 350 347 340 314 324 324 323 323 323 325 326 325
350 350 348 346 347 348 349 349 354 353 350 348 351 348 344 338 332 337 341 351 351 353 353 351 354 356 357 359 357 356 351 353 346 342 327 321 324 323 322 324 325 326 327
350 351 350 349 347 347 348 348 350 352 351 349 349 346 345 344 339 343 344 344 347 348 350 359 356 356 354 360 356 355 355 352 350 345 336 310 309 318 322 328 327 327 326
350 351 351 351 350 348 347 348 349 353 353 352 351 348 347 346 344 338 333 340 346 351 355 346 347 354 355 357 360 356 352 351 353 347 338 313 309 321 323 329 326 325 324
351 349 351 352 352 351 349 347 348 350 352 353 359 353 348 348 346 344 342 334 331 334 343 344 337 351 355 349 356 357 356 352 351 350 341 313 310 327 318 321 325 326 327
359 362 357 351 353 352 351 349 348 350 352 353 355 359 357 352 348 347 346 344 342 334 338 345 342 341 353 349 355 358 359 352 351 351 341 314 315 314 322 322 324 325 327
359 359 363 359 346 353 354 351 350 351 352 353 355 358 357 352 351 350 350 349 349 347 345 339 352 347 350 349 356 360 355 352 350 351 340 316 313 313 326 323 316 320 325
353 355 356 359 363 358 357 354 354 353 352 353 355 356 356 356 354 354 353 350 350 350 350 348 345 346 347 349 356 357 356 354 350 350 340 320 310 312 318 313 315 317 319
348 350 351 354 359 361 362 360 358 358 358 357 356 357 359 359 360 360 359 357 355 353 353 351 351 347 346 351 353 356 356 357 351 350 343 320 310 311 313 314 317 318 317
344 345 346 348 352 355 358 361 362 361 359 359 361 359 360 361 361 361 361 359 359 358 358 356 355 349 345 348 353 356 357 356 351 350 345 322 315 310 314 321 319 319 318
342 342 344 346 347 351 352 355 359 362 363 360 359 360 360 360 361 361 361 360 360 360 360 358 357 352 345 350 356 358 355 353 352 350 343 326 325 314 318 326 324 323 322
340 340 341 345 347 346 349 346 351 357 360 362 363 362 361 361 361 361 361 361 361 361 361 360 359 353 345 349 357 359 359 354 351 350 346 332 323 311 313 326 326 327 323
339 340 342 343 345 345 347 351 352 358 364 362 362 363 363 362 361 362 362 361 361 361 361 360 359 357 354 349 356 357 359 354 350 350 346 336 322 310 310 320 327 328 323
338 340 342 342 342 344 347 350 350 354 361 360 362 362 361 362 363 361 362 361 361 361 362 361 359 356 358 357 357 355 358 353 349 349 347 340 325 310 310 315 321 323 324
336 337 341 341 340 344 344 347 348 349 352 358 361 363 364 362 362 361 362 362 362 361 361 360 356 353 356 357 356 357 356 354 352 349 347 343 327 310 310 310 311 324 326
335 335 337 339 338 339 341 343 343 350 353 355 356 356 358 359 361 364 361 360 361 360 359 360 358 356 358 356 353 356 358 355 353 350 348 345 329 312 309 311 317 326 326
334 335 334 335 336 338 339 340 342 347 350 352 354 357 357 359 358 357 358 357 359 359 359 358 358 358 357 354 351 348 356 355 352 351 348 345 335 317 310 311 312 323 325
332 333 333 333 333 336 337 339 341 343 346 348 347 347 350 354 355 358 359 356 354 354 356 353 351 349 350 352 351 352 350 351 354 351 346 342 336 320 311 311 311 321 322
329 330 330 331 332 332 333 337 339 340 341 345 347 345 347 348 350 349 350 347 346 343 343 344 348 349 349 350 347 345 348 349 349 353 348 344 339 330 314 314 318 323 322
Wind_Speed
20 20 19 20 19 17 18 19 18 17 17 10 13 7 9 3 4 6 6 3 1 4 10 7 12 14 11 9 12 15 9 15 14 11 7 9 4 3 2 4 5 5 4
23 23 23 23 21 19 18 19 19 17 16 14 14 10 8 9 8 5 3 4 2 2 5 8 8 11 14 13 14 13 10 9 14 17 14 6 5 3 3 4 2 5 2
26 27 25 24 23 22 19 19 19 16 16 12 11 13 15 10 11 11 5 2 1 2 5 6 10 10 10 15 12 12 9 10 15 14 12 9 8 13 8 10 3 6 5
26 28 27 26 24 25 19 18 19 17 15 20 12 10 11 8 6 5 4 3 5 2 0 6 9 8 10 14 10 10 8 10 9 8 10 12 13 7 10 14 13 13 3
27 29 29 27 25 24 24 22 18 19 15 17 17 13 16 9 10 7 8 6 6 2 3 5 7 9 9 12 12 10 11 11 10 5 11 8 6 6 11 17 16 17 8
27 31 30 29 26 25 24 23 22 20 19 18 17 18 12 12 10 10 8 3 8 3 7 2 7 5 11 13 13 10 12 13 15 8 4 8 8 12 12 15 17 16 9
28 29 33 33 29 28 26 26 25 22 21 22 17 19 18 15 17 11 11 8 5 9 8 2 7 5 11 11 16 10 10 13 15 13 7 4 8 8 10 11 15 15 14
31 29 31 31 32 30 29 27 27 23 22 22 21 16 17 17 15 18 12 9 5 7 6 8 4 3 6 12 13 10 12 12 13 13 10 5 9 8 7 9 13 15 14
32 32 29 31 31 31 31 30 28 26 23 23 22 21 18 16 14 11 10 15 12 4 8 10 1 4 4 8 14 9 13 12 11 13 12 3 5 9 10 7 9 11 11
26 32 32 32 31 32 32 32 30 30 24 24 23 21 20 17 17 17 18 13 11 13 11 6 4 4 4 11 12 11 13 12 9 12 12 8 4 2 5 7 6 7 8
14 27 31 34 32 30 30 32 31 29 26 25 25 23 21 19 17 20 19 19 18 15 14 15 12 8 6 5 12 13 11 10 12 12 13 11 8 7 7 7 8 11 12
22 18 24 33 36 33 32 32 31 31 29 25 26 24 23 20 18 18 18 18 19 19 19 16 11 10 8 7 11 11 13 12 11 14 13 9 6 5 6 5 6 8 10
24 29 16 24 26 33 34 32 33 32 30 26 24 27 25 24 21 18 17 16 16 17 17 14 11 11 9 9 7 14 10 12 10 13 11 9 7 6 10 12 12 10 11
19 24 27 16 24 22 28 32 30 26 28 27 23 26 28 26 24 23 21 18 18 17 17 16 15 13 11 10 5 15 14 13 10 11 10 6 7 8 6 10 10 9 7
16 19 21 20 16 11 2 21 22 23 24 25 25 24 25 26 25 24 22 22 20 19 18 17 17 17 16 11 8 15 17 16 14 9 9 6 5 4 3 9 12 14 12
18 18 17 18 18 18 10 6 8 10 11 21 25 23 22 23 24 24 22 22 21 20 18 17 17 17 15 9 13 19 20 18 16 9 8 8 4 4 6 9 13 17 16
14 18 17 16 13 11 11 0 5 6 11 13 13 19 21 21 23 23 23 23 23 20 19 18 18 16 16 15 15 14 16 19 14 9 6 5 2 4 6 10 13 18 21
11 13 16 15 12 11 11 10 10 9 8 15 19 17 19 22 23 24 25 26 25 23 21 19 18 17 16 18 16 15 16 18 13 9 4 6 9 5 6 8 9 14 18
9 10 13 10 13 8 12 10 5 13 17 13 17 22 25 25 24 23 24 25 24 23 22 20 18 16 17 18 19 18 17 19 14 9 6 7 7 3 3 5 4 9 15
9 11 11 10 7 7 7 8 8 7 11 13 15 17 17 18 18 19 19 19 20 21 21 18 17 15 15 18 18 18 17 18 13 10 9 9 6 3 4 5 9 1 10
9 8 8 9 10 7 1 3 7 11 12 15 14 14 16 15 16 17 17 17 18 18 17 18 16 16 19 18 18 17 18 18 13 10 11 10 8 5 6 5 4 3 6
7 7 10 10 8 6 4 2 8 5 7 13 16 10 10 14 13 16 18 16 14 14 18 19 17 18 20 20 18 17 18 20 18 10 9 8 7 7 7 4 6 10 8
10 9 8 9 9 9 7 5 4 1 3 3 4 10 14 14 16 12 15 15 17 16 16 15 16 16 20 21 16 17 19 23 22 14 10 7 7 8 8 5 10 13 9
7 11 10 13 13 11 9 8 3 5 4 2 3 6 8 12 11 10 10 14 15 15 16 17 17 16 19 19 14 15 21 25 26 20 15 11 9 8 9 8 10 11 10
5 8 10 10 13 13 12 10 8 1 2 0 4 7 7 8 7 10 10 15 18 17 16 16 18 17 19 17 18 15 12 18 26 24 19 18 17 15 14 11 10 8 9
6 4 11 11 12 13 14 8 7 6 0 3 2 5 4 9 9 9 11 13 14 14 15 16 17 17 19 23 24 16 11 8 18 25 24 21 18 16 14 11 9 11 10
Wind_Direction
177 174 173 163 167 167 169 176 169 185 176 175 156 157 195 151 227 263 268 73 310 356 4 12 7 357 343 6 9 1 3 20 348 348 343 266 157 153 216 177 238 313 205
178 175 177 171 172 176 181 182 181 198 177 170 175 197 218 196 188 114 333 296 339 10 3 0 359 20 3 358 358 5 16 24 358 2 359 17 188 73 231 269 265 341 62
178 176 183 180 177 183 190 191 190 202 177 173 192 219 205 215 213 235 257 221 321 34 326 349 349 30 16 350 350 355 6 21 23 23 22 7 0 353 2 315 216 293 156
179 178 185 185 186 184 193 203 195 204 188 176 193 199 204 206 230 246 184 154 278 278 308 347 342 29 21 348 4 11 32 13 13 4 22 4 344 323 336 343 306 314 226
180 180 187 189 191 192 190 202 212 203 199 192 182 216 217 208 238 201 253 286 237 94 129 317 350 6 347 357 4 4 26 14 18 21 34 355 356 8 351 347 348 342 266
177 179 185 189 195 194 195 195 213 212 198 217 203 199 216 204 208 221 241 237 258 207 201 286 8 346 352 351 356 8 12 15 9 20 39 1 350 333 352 344 344 341 342
174 177 180 186 192 198 196 197 209 216 212 213 214 210 208 212 209 200 219 216 201 222 224 353 335 339 360 340 347 2 2 356 7 11 18 19 353 358 357 353 347 342 347
172 176 180 186 191 199 198 200 210 219 219 215 217 218 216 221 213 215 197 214 225 268 261 290 323 342 327 331 344 342 351 356 359 8 18 44 345 342 4 359 350 348 354
177 173 183 185 195 198 201 200 209 215 224 218 217 222 224 223 219 207 213 209 210 236 281 276 243 304 335 317 327 336 352 354 354 349 357 36 314 22 353 5 358 354 351
196 176 182 188 191 198 203 202 207 218 225 221 218 222 227 226 221 209 217 218 217 237 251 223 243 277 299 317 326 338 326 335 333 334 349 357 15 6 341 2 11 335 336
237 181 187 188 191 196 201 204 204 212 222 225 221 222 226 229 225 227 227 218 212 211 241 250 251 253 281 314 308 323 317 329 328 335 345 354 18 23 41 1 8 7 20
321 8 204 194 191 194 194 198 202 205 220 229 216 225 228 228 230 233 235 236 235 232 236 256 256 253 261 274 298 311 301 323 323 329 338 352 20 22 14 358 35 11 20
10 19 40 229 189 195 193 196 199 202 212 222 222 223 231 235 235 239 240 243 244 245 246 254 260 256 258 278 271 289 290 314 303 321 330 344 3 11 26 26 23 41 31
13 9 23 32 206 265 200 186 193 198 203 214 229 224 230 237 240 241 245 244 249 252 251 247 243 261 265 274 255 277 303 313 302 321 326 337 356 19 39 19 15 27 50
9 3 1 20 47 136 161 180 190 198 204 213 223 235 231 235 241 247 247 249 249 252 254 254 244 244 254 265 254 276 298 315 306 312 308 341 345 20 31 11 28 29 33
9 360 352 353 18 37 60 104 167 188 176 215 219 225 236 241 240 242 246 248 249 251 254 257 250 246 251 250 252 265 279 295 307 297 309 304 318 18 27 31 34 38 46
359 351 345 343 342 21 8 196 185 191 227 200 210 224 229 237 236 237 238 242 246 247 249 254 258 253 243 238 246 261 274 288 299 293 306 304 57 23 36 36 32 44 42
7 345 331 331 332 335 340 273 237 204 196 244 238 231 238 237 238 234 236 239 237 241 242 250 254 254 242 236 243 256 272 282 286 284 266 231 255 328 49 39 355 33 35
354 356 340 341 340 313 313 305 279 250 228 227 239 236 236 240 234 237 235 237 235 235 241 246 250 254 241 233 239 246 264 276 275 263 246 267 253 270 128 128 13 4 21
359 5 352 336 302 295 318 334 301 241 236 239 235 244 229 241 235 236 237 236 236 238 237 241 239 253 249 241 237 240 253 268 263 249 234 250 241 229 185 144 90 245 49
356 10 10 346 345 317 186 359 297 247 201 194 204 228 241 230 231 235 236 235 233 230 237 234 235 240 238 242 242 242 247 264 256 247 235 237 236 217 205 187 138 143 67
342 350 25 355 344 2 215 303 293 288 245 226 212 194 207 219 243 247 227 224 224 224 230 241 233 241 245 247 243 238 235 248 257 253 243 236 214 212 212 182 125 115 94
352 339 9 22 9 21 9 277 312 249 125 93 213 218 234 239 226 229 221 218 216 223 226 229 230 229 237 248 246 236 230 229 243 246 238 230 212 213 212 180 129 110 94
358 356 7 4 4 10 4 4 302 207 178 143 170 198 219 226 246 231 243 226 223 230 236 232 222 221 228 249 243 234 230 223 230 238 230 222 222 214 206 196 157 137 116
5 5 8 12 7 8 6 12 11 298 199 300 293 306 242 217 219 211 198 214 220 230 235 233 232 237 237 254 255 241 234 237 229 232 221 215 215 209 208 201 181 159 142
305 7 17 12 11 353 352 4 29 31 137 184 357 42 289 257 270 260 263 254 261 271 270 265 258 250 244 238 247 244 251 245 245 226 224 224 224 222 212 205 188 165 171